TimeEST,TemperatureF,Dew PointF,Humidity,Sea Level PressureIn,VisibilityMPH,Wind Direction,Wind SpeedMPH,Gust SpeedMPH,PrecipitationIn,Events,Conditions,WindDirDegrees,DateUTC
12:53 AM,71.1,51.1,49,30.17,10.0,ENE,9.2,-,N/A,,Mostly Cloudy,70,2012-11-10 05:53:00
1:53 AM,71.1,52.0,51,30.16,10.0,East,15.0,19.6,N/A,,Mostly Cloudy,90,2012-11-10 06:53:00
2:53 AM,71.1,51.1,49,30.17,10.0,East,11.5,-,N/A,,Mostly Cloudy,100,2012-11-10 07:53:00
3:53 AM,71.1,50.0,47,30.17,10.0,ENE,11.5,-,N/A,,Mostly Cloudy,60,2012-11-10 08:53:00
4:53 AM,71.1,50.0,47,30.18,10.0,East,12.7,-,N/A,,Mostly Cloudy,80,2012-11-10 09:53:00
5:53 AM,72.0,51.1,48,30.19,10.0,East,10.4,-,N/A,,Mostly Cloudy,80,2012-11-10 10:53:00
6:53 AM,71.1,51.1,49,30.21,10.0,NE,11.5,-,N/A,,Mostly Cloudy,40,2012-11-10 11:53:00
7:53 AM,72.0,53.1,51,30.22,10.0,East,12.7,-,N/A,,Overcast,90,2012-11-10 12:53:00
8:53 AM,73.0,54.0,51,30.24,10.0,East,10.4,-,N/A,,Overcast,80,2012-11-10 13:53:00
9:53 AM,73.9,53.1,48,30.25,10.0,East,13.8,-,N/A,,Overcast,80,2012-11-10 14:53:00
10:53 AM,73.9,55.0,52,30.25,10.0,East,12.7,-,N/A,,Overcast,90,2012-11-10 15:53:00
11:53 AM,77.0,53.1,43,30.24,10.0,East,17.3,23.0,N/A,,Mostly Cloudy,80,2012-11-10 16:53:00
12:53 PM,75.0,52.0,44,30.22,10.0,East,15.0,19.6,N/A,,Scattered Clouds,90,2012-11-10 17:53:00
1:53 PM,75.0,53.1,46,30.19,10.0,ENE,16.1,-,N/A,,Mostly Cloudy,70,2012-11-10 18:53:00
2:53 PM,75.9,52.0,43,30.18,10.0,ENE,16.1,21.9,N/A,,Mostly Cloudy,60,2012-11-10 19:53:00
3:53 PM,73.9,53.1,48,30.18,10.0,ENE,18.4,21.9,N/A,,Mostly Cloudy,70,2012-11-10 20:53:00
4:53 PM,73.9,53.1,48,30.19,10.0,ENE,16.1,-,N/A,,Mostly Cloudy,60,2012-11-10 21:53:00
5:53 PM,73.0,54.0,51,30.20,10.0,ENE,15.0,21.9,N/A,,Mostly Cloudy,60,2012-11-10 22:53:00
6:53 PM,73.0,55.0,53,30.21,10.0,East,15.0,23.0,N/A,,Scattered Clouds,80,2012-11-10 23:53:00
7:53 PM,73.0,55.9,55,30.21,10.0,ENE,13.8,-,N/A,,Mostly Cloudy,70,2012-11-11 00:53:00
8:53 PM,73.0,55.9,55,30.22,10.0,ENE,17.3,23.0,N/A,,Mostly Cloudy,70,2012-11-11 01:53:00
9:53 PM,73.9,55.9,53,30.22,10.0,ENE,16.1,20.7,N/A,,Mostly Cloudy,70,2012-11-11 02:53:00
10:53 PM,73.0,55.9,55,30.21,10.0,ENE,13.8,-,N/A,,Mostly Cloudy,70,2012-11-11 03:53:00
11:53 PM,73.9,57.0,55,30.20,10.0,East,18.4,-,N/A,,Scattered Clouds,90,2012-11-11 04:53:00